Year,Month,Day,Hour,Minute,Value (Times are PST for windspeed in km/hr)
2008,12,30,00,00,4.90
2008,12,30,00,01,4.70
2008,12,30,00,02,4.70
2008,12,30,00,03,3.30
2008,12,30,00,04,3.60
2008,12,30,00,05,4.80
2008,12,30,00,06,4.40
2008,12,30,00,07,3.40
2008,12,30,00,08,3.80
2008,12,30,00,09,4.40
2008,12,30,00,10,5.50
2008,12,30,00,11,1.90
2008,12,30,00,12,0.80
2008,12,30,00,43,1.00
2008,12,30,00,44,0.80
2008,12,30,00,45,0.10
2008,12,30,00,46,0.00
2008,12,30,00,47,1.70
2008,12,30,00,48,0.20
2008,12,30,00,49,0.00
2008,12,30,00,50,0.30
2008,12,30,00,51,2.00
2008,12,30,00,52,0.80
2008,12,30,00,53,0.00
2008,12,30,00,54,0.90
2008,12,30,00,55,1.80
2008,12,30,00,56,4.30
2008,12,30,00,57,7.40
2008,12,30,00,58,7.70
2008,12,30,00,59,5.10
2008,12,30,01,00,1.30
2008,12,30,01,01,1.00
2008,12,30,01,02,0.80
2008,12,30,01,03,3.00
2008,12,30,01,04,3.90
2008,12,30,01,05,4.70
2008,12,30,01,06,3.70
2008,12,30,01,07,1.70
2008,12,30,01,08,0.10
2008,12,30,01,09,1.40
2008,12,30,01,10,2.90
2008,12,30,01,11,0.80
2008,12,30,01,12,0.00
2008,12,30,01,13,0.00
2008,12,30,01,14,0.00
2008,12,30,01,15,0.00
2008,12,30,01,16,0.50
2008,12,30,01,17,0.20
2008,12,30,01,18,0.00
2008,12,30,01,19,0.10
2008,12,30,01,20,0.10
2008,12,30,01,21,0.10
2008,12,30,01,22,0.00
2008,12,30,01,23,0.00
2008,12,30,01,24,0.00
2008,12,30,01,25,0.00
2008,12,30,01,26,0.00
2008,12,30,01,27,1.00
2008,12,30,01,28,0.00
2008,12,30,01,29,0.30
2008,12,30,01,30,0.00
2008,12,30,01,31,0.00
2008,12,30,01,32,0.00
2008,12,30,01,33,0.00
2008,12,30,01,34,0.00
2008,12,30,01,35,0.00
2008,12,30,01,36,0.00
2008,12,30,01,37,0.30
2008,12,30,01,38,0.00
2008,12,30,01,39,0.00
2008,12,30,01,40,0.00
2008,12,30,01,41,0.00
2008,12,30,01,42,0.00
2008,12,30,01,43,0.00
2008,12,30,01,44,0.00
2008,12,30,01,45,0.00
2008,12,30,01,46,0.10
2008,12,30,01,47,0.00
2008,12,30,01,48,0.00
2008,12,30,01,49,0.70
2008,12,30,01,50,0.00
2008,12,30,01,51,0.20
2008,12,30,01,52,0.10
2008,12,30,01,53,0.00
2008,12,30,01,54,0.60
2008,12,30,01,55,1.00
2008,12,30,01,56,0.00
2008,12,30,01,57,1.20
2008,12,30,01,58,3.90
2008,12,30,01,59,2.30
2008,12,30,02,00,1.10
2008,12,30,02,01,1.30
2008,12,30,02,02,1.70
2008,12,30,02,03,0.00
2008,12,30,02,04,0.00
2008,12,30,02,05,0.00
2008,12,30,02,06,0.00
2008,12,30,02,07,1.00
2008,12,30,02,08,1.60
2008,12,30,02,09,1.40
2008,12,30,02,10,3.00
2008,12,30,02,11,5.60
2008,12,30,02,12,5.30
2008,12,30,02,13,4.30
2008,12,30,02,14,6.30
2008,12,30,02,15,5.10
2008,12,30,02,16,3.30
2008,12,30,02,17,3.00
2008,12,30,02,18,0.20
2008,12,30,02,19,0.00
2008,12,30,02,20,0.00
2008,12,30,02,21,0.70
2008,12,30,02,22,0.00
2008,12,30,02,23,0.00
2008,12,30,02,24,0.00
2008,12,30,02,25,0.00
2008,12,30,02,26,0.00
2008,12,30,02,27,0.00
2008,12,30,02,28,0.00
2008,12,30,02,29,0.00
2008,12,30,02,30,0.00
2008,12,30,02,31,0.00
2008,12,30,02,32,0.00
2008,12,30,02,33,0.00
2008,12,30,02,34,0.70
2008,12,30,02,35,1.40
2008,12,30,02,36,1.70
2008,12,30,02,37,0.90
2008,12,30,02,38,0.00
2008,12,30,02,39,0.00
2008,12,30,02,40,0.10
2008,12,30,02,41,0.00
2008,12,30,02,42,2.40
2008,12,30,02,43,2.60
2008,12,30,02,44,1.90
2008,12,30,02,45,2.40
2008,12,30,02,46,2.20
2008,12,30,02,47,2.00
2008,12,30,02,48,1.50
2008,12,30,02,49,1.40
2008,12,30,02,50,0.80
2008,12,30,02,51,1.50
2008,12,30,02,52,0.90
2008,12,30,02,53,0.60
2008,12,30,02,54,1.40
2008,12,30,02,55,1.00
2008,12,30,02,56,0.10
2008,12,30,02,57,0.00
2008,12,30,02,58,0.10
2008,12,30,02,59,0.00
2008,12,30,03,00,1.40
2008,12,30,03,01,0.50
2008,12,30,03,02,0.00
2008,12,30,03,03,0.20
2008,12,30,03,04,0.00
2008,12,30,03,05,0.50
2008,12,30,03,06,2.40
2008,12,30,03,07,1.50
2008,12,30,03,08,1.90
2008,12,30,03,09,2.00
2008,12,30,03,10,0.40
2008,12,30,03,11,3.20
2008,12,30,03,12,3.00
2008,12,30,03,13,3.30
2008,12,30,03,14,3.20
2008,12,30,03,15,3.40
2008,12,30,03,16,3.30
2008,12,30,03,17,5.10
2008,12,30,03,18,4.90
2008,12,30,03,19,6.60
2008,12,30,03,20,6.60
2008,12,30,03,21,3.80
2008,12,30,03,22,4.00
2008,12,30,03,23,3.60
2008,12,30,03,24,2.10
2008,12,30,03,25,3.10
2008,12,30,03,26,2.80
2008,12,30,03,27,4.10
2008,12,30,03,28,3.50
2008,12,30,03,29,2.40
2008,12,30,03,30,3.50
2008,12,30,03,31,2.60
2008,12,30,03,32,2.00
2008,12,30,03,33,2.50
2008,12,30,03,34,4.30
2008,12,30,03,35,2.90
2008,12,30,03,36,3.30
2008,12,30,03,37,1.10
2008,12,30,03,38,2.00
2008,12,30,03,39,0.20
2008,12,30,03,40,1.20
2008,12,30,03,41,1.80
2008,12,30,03,42,0.80
2008,12,30,03,43,0.60
2008,12,30,03,44,0.60
2008,12,30,03,45,1.80
2008,12,30,03,46,1.80
2008,12,30,03,47,0.30
2008,12,30,03,48,1.80
2008,12,30,03,49,1.80
2008,12,30,03,50,0.80
2008,12,30,03,51,0.00
2008,12,30,03,52,1.20
2008,12,30,03,53,0.10
2008,12,30,03,54,0.20
2008,12,30,03,55,0.90
2008,12,30,03,56,0.00
2008,12,30,03,57,0.00
2008,12,30,03,58,0.70
2008,12,30,03,59,1.50
2008,12,30,04,00,0.00
2008,12,30,04,01,0.00
2008,12,30,04,02,0.00
2008,12,30,04,03,0.00
2008,12,30,04,04,0.00
2008,12,30,04,05,0.00
2008,12,30,04,06,0.30
2008,12,30,04,07,0.00
2008,12,30,04,08,0.00
2008,12,30,04,09,0.00
2008,12,30,04,10,0.00
2008,12,30,04,11,0.00
2008,12,30,04,12,0.00
2008,12,30,04,13,0.00
2008,12,30,04,14,0.00
2008,12,30,04,15,0.00
2008,12,30,04,16,0.00
2008,12,30,04,17,0.00
2008,12,30,04,18,0.00
2008,12,30,04,19,0.00
2008,12,30,04,20,0.00
2008,12,30,04,21,0.00
2008,12,30,04,22,0.00
2008,12,30,04,23,0.00
2008,12,30,04,24,0.00
2008,12,30,04,25,0.00
2008,12,30,04,26,0.00
2008,12,30,04,27,0.00
2008,12,30,04,28,0.00
2008,12,30,04,29,0.00
2008,12,30,04,30,0.00
2008,12,30,04,31,0.00
2008,12,30,04,32,0.00
2008,12,30,04,33,0.00
2008,12,30,04,34,0.00
2008,12,30,04,35,0.00
2008,12,30,04,36,0.00
2008,12,30,04,37,0.00
2008,12,30,04,38,0.00
2008,12,30,04,39,0.00
2008,12,30,04,40,0.40
2008,12,30,04,41,2.50
2008,12,30,04,42,0.40
2008,12,30,04,43,0.00
2008,12,30,04,44,0.00
2008,12,30,04,45,0.00
2008,12,30,04,46,0.00
2008,12,30,04,47,0.00
2008,12,30,04,48,0.00
2008,12,30,04,49,0.00
2008,12,30,04,50,0.00
2008,12,30,04,51,0.00
2008,12,30,04,52,0.00
2008,12,30,04,53,0.00
2008,12,30,04,54,0.00
2008,12,30,04,55,0.10
2008,12,30,04,56,1.90
2008,12,30,04,57,1.90
2008,12,30,04,58,1.80
2008,12,30,04,59,1.80
2008,12,30,05,00,0.10
2008,12,30,05,01,0.40
2008,12,30,05,02,3.10
2008,12,30,05,03,2.30
2008,12,30,05,04,1.00
2008,12,30,05,05,1.10
2008,12,30,05,06,0.50
2008,12,30,05,07,0.30
2008,12,30,05,08,0.10
2008,12,30,05,09,0.20
2008,12,30,05,10,2.70
2008,12,30,05,11,4.00
2008,12,30,05,12,3.20
2008,12,30,05,13,2.50
2008,12,30,05,14,2.70
2008,12,30,05,15,2.40
2008,12,30,05,16,0.00
2008,12,30,05,17,0.60
2008,12,30,05,18,3.50
2008,12,30,05,19,3.30
2008,12,30,05,20,3.00
2008,12,30,05,21,1.70
2008,12,30,05,22,1.50
2008,12,30,05,23,1.00
2008,12,30,05,24,2.60
2008,12,30,05,25,3.60
2008,12,30,05,26,2.70
2008,12,30,05,27,0.60
2008,12,30,05,28,3.50
2008,12,30,05,29,3.70
2008,12,30,05,30,3.90
2008,12,30,05,31,2.50
2008,12,30,05,32,1.50
2008,12,30,05,33,2.90
2008,12,30,05,34,2.90
2008,12,30,05,35,5.10
2008,12,30,05,36,3.10
2008,12,30,05,37,3.70
2008,12,30,05,38,3.20
2008,12,30,05,39,2.20
2008,12,30,05,40,3.10
2008,12,30,05,41,4.70
2008,12,30,05,42,4.80
2008,12,30,05,43,3.90
2008,12,30,05,44,2.50
2008,12,30,05,45,4.10
2008,12,30,05,46,3.40
2008,12,30,05,47,3.90
2008,12,30,05,48,2.70
2008,12,30,05,49,2.60
2008,12,30,05,50,2.00
2008,12,30,05,51,3.30
2008,12,30,05,52,4.40
2008,12,30,05,53,3.00
2008,12,30,05,54,3.00
2008,12,30,05,55,3.10
2008,12,30,05,56,2.80
2008,12,30,05,57,2.40
2008,12,30,05,58,2.80
2008,12,30,05,59,1.50
2008,12,30,06,00,3.20
2008,12,30,06,01,2.70
2008,12,30,06,02,1.90
2008,12,30,06,03,1.90
2008,12,30,06,04,0.30
2008,12,30,06,05,0.00
2008,12,30,06,06,0.00
2008,12,30,06,07,0.00
2008,12,30,06,08,0.00
2008,12,30,06,09,0.00
2008,12,30,06,10,0.00
2008,12,30,06,11,0.00
2008,12,30,06,12,0.00
2008,12,30,06,13,0.00
2008,12,30,06,14,0.00
2008,12,30,06,15,0.00
2008,12,30,06,16,0.00
2008,12,30,06,17,0.50
2008,12,30,06,18,2.30
2008,12,30,06,19,3.50
2008,12,30,06,20,3.40
2008,12,30,06,21,2.30
2008,12,30,06,22,0.90
2008,12,30,06,23,0.00
2008,12,30,06,24,0.00
2008,12,30,06,25,0.00
2008,12,30,06,26,1.40
2008,12,30,06,27,2.30
2008,12,30,06,28,2.30
2008,12,30,06,29,2.10
2008,12,30,06,30,1.90
2008,12,30,06,31,0.80
2008,12,30,06,32,0.40
2008,12,30,06,33,0.60
2008,12,30,06,34,1.50
2008,12,30,06,35,2.30
2008,12,30,06,36,1.90
2008,12,30,06,37,3.90
2008,12,30,06,38,4.50
2008,12,30,06,39,4.30
2008,12,30,06,40,4.00
2008,12,30,06,41,4.10
2008,12,30,06,42,4.20
2008,12,30,06,43,2.60
2008,12,30,06,44,2.20
2008,12,30,06,45,0.20
2008,12,30,06,46,0.00
2008,12,30,06,47,2.70
2008,12,30,06,48,2.50
2008,12,30,06,49,2.50
2008,12,30,06,50,0.00
2008,12,30,06,51,0.20
2008,12,30,06,52,0.00
2008,12,30,06,53,0.00
2008,12,30,06,54,0.00
2008,12,30,06,55,0.00
2008,12,30,06,56,0.00
2008,12,30,06,57,0.00
2008,12,30,06,58,0.00
2008,12,30,06,59,0.00
2008,12,30,07,00,0.00
2008,12,30,07,01,0.00
2008,12,30,07,02,0.00
2008,12,30,07,03,0.00
2008,12,30,07,04,1.20
2008,12,30,07,05,1.40
2008,12,30,07,06,1.70
2008,12,30,07,07,1.50
2008,12,30,07,08,2.10
2008,12,30,07,09,1.50
2008,12,30,07,10,1.10
2008,12,30,07,11,2.20
2008,12,30,07,12,2.80
2008,12,30,07,13,2.40
2008,12,30,07,14,2.00
2008,12,30,07,15,1.70
2008,12,30,07,16,1.90
2008,12,30,07,17,1.60
2008,12,30,07,18,2.20
2008,12,30,07,19,2.20
2008,12,30,07,20,1.40
2008,12,30,07,21,0.30
2008,12,30,07,22,2.00
2008,12,30,07,23,1.70
2008,12,30,07,24,0.20
2008,12,30,07,25,0.20
2008,12,30,07,26,2.80
2008,12,30,07,27,3.00
2008,12,30,07,28,1.30
2008,12,30,07,29,1.70
2008,12,30,07,30,1.80
2008,12,30,07,31,1.70
2008,12,30,07,32,1.90
2008,12,30,07,33,1.40
2008,12,30,07,34,1.70
2008,12,30,07,35,1.60
2008,12,30,07,36,2.30
2008,12,30,07,37,1.00
2008,12,30,07,38,2.30
2008,12,30,07,39,3.00
2008,12,30,07,40,4.00
2008,12,30,07,41,4.10
2008,12,30,07,42,4.50
2008,12,30,07,43,3.90
2008,12,30,07,44,2.30
2008,12,30,07,45,3.90
2008,12,30,07,46,4.70
2008,12,30,07,47,2.60
2008,12,30,07,48,2.90
2008,12,30,07,49,3.10
2008,12,30,07,50,3.20
2008,12,30,07,51,2.30
2008,12,30,07,52,1.10
2008,12,30,07,53,2.90
2008,12,30,07,54,3.70
2008,12,30,07,55,2.80
2008,12,30,07,56,2.90
2008,12,30,07,57,3.50
2008,12,30,07,58,4.10
2008,12,30,07,59,4.60
2008,12,30,08,00,3.40
2008,12,30,08,01,2.30
2008,12,30,08,02,2.50
2008,12,30,08,03,0.10
2008,12,30,08,04,0.30
2008,12,30,08,05,3.40
2008,12,30,08,06,2.80
2008,12,30,08,07,0.30
2008,12,30,08,08,0.80
2008,12,30,08,09,2.80
2008,12,30,08,10,3.20
2008,12,30,08,11,4.60
2008,12,30,08,12,3.00
2008,12,30,08,13,1.70
2008,12,30,08,14,2.40
2008,12,30,08,15,2.50
2008,12,30,08,16,2.40
2008,12,30,08,17,4.20
2008,12,30,08,18,3.80
2008,12,30,08,19,0.80
2008,12,30,08,20,0.10
2008,12,30,08,21,0.40
2008,12,30,08,22,0.40
2008,12,30,08,23,2.10
2008,12,30,08,24,1.10
2008,12,30,08,25,0.80
2008,12,30,08,26,3.10
2008,12,30,08,27,3.30
2008,12,30,08,28,2.70
2008,12,30,08,29,2.60
2008,12,30,08,30,3.00
2008,12,30,08,31,2.50
2008,12,30,08,32,2.10
2008,12,30,08,33,3.50
2008,12,30,08,34,4.00
2008,12,30,08,35,3.40
2008,12,30,08,36,4.20
2008,12,30,08,37,5.30
2008,12,30,08,38,3.90
2008,12,30,08,39,3.10
2008,12,30,08,40,3.90
2008,12,30,08,41,4.60
2008,12,30,08,42,2.80
2008,12,30,08,43,0.00
2008,12,30,08,44,0.10
2008,12,30,08,45,0.00
2008,12,30,08,46,0.00
2008,12,30,08,47,0.00
2008,12,30,08,48,0.00
2008,12,30,08,49,0.00
2008,12,30,08,50,0.00
2008,12,30,08,51,0.50
2008,12,30,08,52,1.80
2008,12,30,08,53,3.20
2008,12,30,08,54,2.30
2008,12,30,08,55,3.00
2008,12,30,08,56,3.10
2008,12,30,08,57,3.00
2008,12,30,08,58,3.30
2008,12,30,08,59,4.50
2008,12,30,09,00,4.10
2008,12,30,09,01,4.10
2008,12,30,09,02,2.20
2008,12,30,09,03,3.30
2008,12,30,09,04,1.20
2008,12,30,09,05,2.60
2008,12,30,09,06,0.80
2008,12,30,09,07,0.00
2008,12,30,09,08,0.00
2008,12,30,09,09,1.00
2008,12,30,09,10,2.80
2008,12,30,09,11,3.00
2008,12,30,09,12,2.90
2008,12,30,09,13,1.00
2008,12,30,09,14,0.00
2008,12,30,09,15,0.10
2008,12,30,09,16,2.70
2008,12,30,09,17,0.10
2008,12,30,09,18,0.00
2008,12,30,09,19,0.00
2008,12,30,09,20,0.10
2008,12,30,09,21,1.40
2008,12,30,09,22,2.50
2008,12,30,09,23,1.90
2008,12,30,09,24,1.00
2008,12,30,09,25,3.00
2008,12,30,09,26,0.90
2008,12,30,09,27,3.20
2008,12,30,09,28,2.80
2008,12,30,09,29,2.30
2008,12,30,09,30,2.50
2008,12,30,09,31,4.10
2008,12,30,09,32,3.00
2008,12,30,09,33,3.80
2008,12,30,09,34,4.90
2008,12,30,09,35,4.80
2008,12,30,09,36,3.50
2008,12,30,09,37,3.50
2008,12,30,09,38,4.30
2008,12,30,09,39,2.90
2008,12,30,09,40,0.20
2008,12,30,09,41,1.90
2008,12,30,09,42,2.30
2008,12,30,09,43,1.90
2008,12,30,09,44,1.00
2008,12,30,09,45,0.50
2008,12,30,09,46,3.10
2008,12,30,09,47,3.30
2008,12,30,09,48,3.40
2008,12,30,09,49,0.90
2008,12,30,09,50,0.20
2008,12,30,09,51,0.00
2008,12,30,09,52,0.00
2008,12,30,09,53,0.00
2008,12,30,09,54,0.00
2008,12,30,09,55,0.20
2008,12,30,09,56,0.80
2008,12,30,09,57,1.80
2008,12,30,09,58,0.50
2008,12,30,09,59,0.10
2008,12,30,10,00,1.40
2008,12,30,10,01,2.50
2008,12,30,10,02,3.20
2008,12,30,10,03,3.80
2008,12,30,10,04,3.90
2008,12,30,10,05,2.40
2008,12,30,10,06,1.20
2008,12,30,10,07,1.40
2008,12,30,10,08,3.00
2008,12,30,10,09,1.20
2008,12,30,10,10,0.00
2008,12,30,10,11,0.90
2008,12,30,10,12,0.10
2008,12,30,10,13,1.20
2008,12,30,10,14,3.40
2008,12,30,10,15,2.00
2008,12,30,10,16,1.00
2008,12,30,10,17,0.00
2008,12,30,10,18,0.00
2008,12,30,10,19,2.40
2008,12,30,10,20,3.40
2008,12,30,10,21,0.50
2008,12,30,10,22,0.30
2008,12,30,10,23,1.70
2008,12,30,10,24,1.50
2008,12,30,10,25,0.20
2008,12,30,10,26,2.80
2008,12,30,10,27,1.80
2008,12,30,10,28,2.30
2008,12,30,10,29,2.00
2008,12,30,10,30,0.00
2008,12,30,10,31,0.00
2008,12,30,10,32,0.40
2008,12,30,10,33,1.40
2008,12,30,10,34,0.10
2008,12,30,10,35,0.00
2008,12,30,10,36,0.90
2008,12,30,10,37,1.80
2008,12,30,10,38,0.00
2008,12,30,10,39,0.00
2008,12,30,10,40,1.00
2008,12,30,10,41,0.20
2008,12,30,10,42,0.00
2008,12,30,10,43,1.20
2008,12,30,10,44,0.70
2008,12,30,10,45,1.80
2008,12,30,10,46,0.00
2008,12,30,10,47,0.10
2008,12,30,10,48,0.40
2008,12,30,10,49,0.60
2008,12,30,10,50,0.30
2008,12,30,10,51,1.50
2008,12,30,10,52,3.00
2008,12,30,10,53,3.00
2008,12,30,10,54,2.90
2008,12,30,10,55,2.40
2008,12,30,10,56,0.80
2008,12,30,10,57,0.10
2008,12,30,10,58,0.00
2008,12,30,10,59,0.00
2008,12,30,11,00,0.00
2008,12,30,11,01,0.00
2008,12,30,11,02,0.20
2008,12,30,11,03,0.00
2008,12,30,11,04,0.00
2008,12,30,11,05,0.00
2008,12,30,11,06,0.00
2008,12,30,11,07,0.00
2008,12,30,11,08,0.70
2008,12,30,11,09,1.80
2008,12,30,11,10,0.60
2008,12,30,11,11,2.50
2008,12,30,11,12,1.90
2008,12,30,11,13,1.10
2008,12,30,11,14,1.20
2008,12,30,11,15,0.00
2008,12,30,11,16,0.00
2008,12,30,11,17,0.70
2008,12,30,11,18,2.40
2008,12,30,11,19,0.90
2008,12,30,11,20,0.10
2008,12,30,11,21,0.30
2008,12,30,11,22,0.20
2008,12,30,11,23,0.60
2008,12,30,11,24,2.00
2008,12,30,11,25,2.10
2008,12,30,11,26,1.40
2008,12,30,11,27,0.50
2008,12,30,11,28,1.00
2008,12,30,11,29,3.80
2008,12,30,11,30,2.80
2008,12,30,11,31,0.00
2008,12,30,11,32,1.40
2008,12,30,11,33,1.40
2008,12,30,11,34,0.50
2008,12,30,11,35,1.00
2008,12,30,11,36,0.50
2008,12,30,11,37,1.20
2008,12,30,11,38,0.40
2008,12,30,11,39,3.10
2008,12,30,11,40,2.00
2008,12,30,11,41,3.30
2008,12,30,11,42,2.40
2008,12,30,11,43,2.10
2008,12,30,11,44,2.10
2008,12,30,11,45,1.90
2008,12,30,11,46,3.40
2008,12,30,11,47,1.70
2008,12,30,11,48,3.10
2008,12,30,11,49,1.50
2008,12,30,11,50,0.90
2008,12,30,11,51,2.90
2008,12,30,11,52,4.20
2008,12,30,11,53,3.20
2008,12,30,11,54,4.00
2008,12,30,11,55,2.40
2008,12,30,11,56,3.10
2008,12,30,11,57,3.70
2008,12,30,11,58,4.70
2008,12,30,11,59,5.40
2008,12,30,12,00,2.70
2008,12,30,12,01,5.20
2008,12,30,12,02,4.60
2008,12,30,12,03,4.80
2008,12,30,12,04,5.70
2008,12,30,12,05,7.30
2008,12,30,12,06,5.10
2008,12,30,12,07,6.40
2008,12,30,12,08,6.60
2008,12,30,12,09,7.60
2008,12,30,12,10,6.70
2008,12,30,12,11,7.30
2008,12,30,12,12,5.70
2008,12,30,12,13,5.50
2008,12,30,12,14,5.70
2008,12,30,12,15,6.70
2008,12,30,12,16,5.60
2008,12,30,12,17,6.60
2008,12,30,12,18,8.60
2008,12,30,12,19,6.90
2008,12,30,12,20,7.10
2008,12,30,12,21,6.70
2008,12,30,12,22,7.50
2008,12,30,12,23,6.60
2008,12,30,12,24,6.60
2008,12,30,12,25,7.30
2008,12,30,12,26,5.20
2008,12,30,12,27,4.00
2008,12,30,12,28,4.10
2008,12,30,12,29,5.30
2008,12,30,12,30,4.80
2008,12,30,12,31,7.30
2008,12,30,12,32,6.40
2008,12,30,12,33,2.70
2008,12,30,12,34,3.40
2008,12,30,12,35,4.00
2008,12,30,12,36,0.60
2008,12,30,12,37,2.10
2008,12,30,12,38,4.90
2008,12,30,12,39,5.70
2008,12,30,12,40,5.70
2008,12,30,12,41,6.20
2008,12,30,12,42,5.30
2008,12,30,12,43,5.70
2008,12,30,12,44,3.60
2008,12,30,12,45,1.30
2008,12,30,12,46,3.30
2008,12,30,12,47,3.50
2008,12,30,12,48,4.00
2008,12,30,12,49,4.30
2008,12,30,12,50,4.00
2008,12,30,12,51,5.60
2008,12,30,12,52,5.40
2008,12,30,12,53,4.70
2008,12,30,12,54,3.20
2008,12,30,12,55,3.10
2008,12,30,12,56,5.70
2008,12,30,12,57,1.10
2008,12,30,12,58,0.10
2008,12,30,12,59,1.90
2008,12,30,13,00,1.70
2008,12,30,13,01,2.30
2008,12,30,13,02,3.50
2008,12,30,13,03,3.60
2008,12,30,13,04,3.40
2008,12,30,13,05,4.60
2008,12,30,13,06,5.10
2008,12,30,13,07,5.30
2008,12,30,13,08,3.10
2008,12,30,13,09,5.40
2008,12,30,13,10,2.40
2008,12,30,13,11,1.00
2008,12,30,13,12,2.80
2008,12,30,13,13,1.10
2008,12,30,13,14,1.60
2008,12,30,13,15,3.30
2008,12,30,13,16,0.50
2008,12,30,13,17,1.30
2008,12,30,13,18,2.50
2008,12,30,13,19,6.60
2008,12,30,13,20,3.90
2008,12,30,13,21,4.20
2008,12,30,13,22,1.50
2008,12,30,13,23,5.70
2008,12,30,13,24,4.90
2008,12,30,13,25,6.00
2008,12,30,13,26,5.50
2008,12,30,13,27,2.50
2008,12,30,13,28,4.50
2008,12,30,13,29,2.10
2008,12,30,13,30,2.10
2008,12,30,13,31,3.10
2008,12,30,13,32,4.70
2008,12,30,13,33,4.10
2008,12,30,13,34,4.60
2008,12,30,13,35,4.90
2008,12,30,13,36,4.30
2008,12,30,13,37,1.10
2008,12,30,13,38,1.80
2008,12,30,13,39,0.00
2008,12,30,13,40,0.00
2008,12,30,13,41,0.00
2008,12,30,13,42,0.10
2008,12,30,13,43,0.90
2008,12,30,13,44,1.90
2008,12,30,13,45,0.20
2008,12,30,13,46,0.00
2008,12,30,13,47,3.20
2008,12,30,13,48,3.50
2008,12,30,13,49,4.20
2008,12,30,13,50,5.30
2008,12,30,13,51,5.40
2008,12,30,13,52,3.40
2008,12,30,13,53,5.80
2008,12,30,13,54,5.00
2008,12,30,13,55,4.80
2008,12,30,13,56,3.00
2008,12,30,13,57,2.40
2008,12,30,13,58,2.80
2008,12,30,13,59,0.90
2008,12,30,14,00,1.70
2008,12,30,14,01,3.30
2008,12,30,14,02,6.20
2008,12,30,14,03,3.80
2008,12,30,14,04,5.20
2008,12,30,14,05,4.10
2008,12,30,14,06,6.00
2008,12,30,14,07,5.90
2008,12,30,14,08,4.70
2008,12,30,14,09,5.60
2008,12,30,14,10,5.00
2008,12,30,14,11,3.10
2008,12,30,14,12,4.30
2008,12,30,14,13,5.30
2008,12,30,14,14,5.40
2008,12,30,14,15,4.40
2008,12,30,14,16,4.10
2008,12,30,14,17,2.20
2008,12,30,14,18,3.90
2008,12,30,14,19,4.50
2008,12,30,14,20,6.70
2008,12,30,14,21,5.10
2008,12,30,14,22,3.30
2008,12,30,14,23,2.70
2008,12,30,14,24,3.70
2008,12,30,14,25,4.90
2008,12,30,14,26,4.40
2008,12,30,14,27,4.70
2008,12,30,14,28,4.30
2008,12,30,14,29,3.50
2008,12,30,14,30,5.50
2008,12,30,14,31,5.00
2008,12,30,14,32,3.60
2008,12,30,14,33,3.50
2008,12,30,14,34,5.10
2008,12,30,14,35,5.10
2008,12,30,14,36,4.80
2008,12,30,14,37,5.10
2008,12,30,14,38,5.30
2008,12,30,14,39,6.30
2008,12,30,14,40,4.90
2008,12,30,14,41,6.90
2008,12,30,14,42,4.80
2008,12,30,14,43,2.80
2008,12,30,14,44,0.50
2008,12,30,14,45,6.00
2008,12,30,14,46,4.70
2008,12,30,14,47,6.00
2008,12,30,14,48,3.20
2008,12,30,14,49,5.30
2008,12,30,14,52,5.60
2008,12,30,14,53,6.30
2008,12,30,14,54,7.10
2008,12,30,14,55,6.40
2008,12,30,14,56,7.40
2008,12,30,14,57,5.90
2008,12,30,14,58,4.40
2008,12,30,14,59,5.60
2008,12,30,15,00,4.50
2008,12,30,15,01,2.00
2008,12,30,15,02,0.20
2008,12,30,15,03,0.00
2008,12,30,15,04,2.20
2008,12,30,15,05,1.40
2008,12,30,15,06,3.30
2008,12,30,15,07,2.80
2008,12,30,15,08,2.70
2008,12,30,15,09,2.20
2008,12,30,15,10,1.00
2008,12,30,15,11,1.70
2008,12,30,15,12,0.80
2008,12,30,15,13,0.00
2008,12,30,15,14,1.60
2008,12,30,15,15,2.80
2008,12,30,15,16,3.00
2008,12,30,15,17,1.70
2008,12,30,15,18,1.30
2008,12,30,15,19,0.20
2008,12,30,15,20,2.10
2008,12,30,15,21,1.20
2008,12,30,15,22,0.30
2008,12,30,15,23,0.50
2008,12,30,15,24,1.20
2008,12,30,15,25,2.70
2008,12,30,15,26,2.30
2008,12,30,15,27,3.80
2008,12,30,15,28,2.30
2008,12,30,15,29,2.20
2008,12,30,15,30,3.00
2008,12,30,15,31,4.10
2008,12,30,15,32,3.70
2008,12,30,15,33,5.80
2008,12,30,15,34,5.60
2008,12,30,15,35,5.60
2008,12,30,15,36,5.70
2008,12,30,15,37,3.50
2008,12,30,15,38,5.80
2008,12,30,15,39,3.10
2008,12,30,15,40,2.80
2008,12,30,15,41,3.30
2008,12,30,15,42,7.50
2008,12,30,15,43,5.70
2008,12,30,15,44,4.20
2008,12,30,15,45,6.30
2008,12,30,15,46,3.70
2008,12,30,15,47,4.10
2008,12,30,15,48,3.60
2008,12,30,15,49,5.10
2008,12,30,15,50,3.70
2008,12,30,15,51,3.60
2008,12,30,15,52,2.10
2008,12,30,15,53,2.60
2008,12,30,15,54,4.50
2008,12,30,15,55,2.60
2008,12,30,15,56,2.30
2008,12,30,15,57,2.90
2008,12,30,15,58,4.70
2008,12,30,15,59,5.00
2008,12,30,16,00,3.40
2008,12,30,16,01,3.70
2008,12,30,16,02,3.40
2008,12,30,16,03,1.80
2008,12,30,16,04,0.10
2008,12,30,16,05,0.50
2008,12,30,16,06,1.00
2008,12,30,16,07,0.10
2008,12,30,16,08,3.60
2008,12,30,16,09,3.80
2008,12,30,16,10,4.00
2008,12,30,16,11,4.10
2008,12,30,16,12,3.70
2008,12,30,16,13,3.10
2008,12,30,16,14,2.70
2008,12,30,16,15,2.70
2008,12,30,16,16,2.10
2008,12,30,16,17,0.60
2008,12,30,16,18,0.70
2008,12,30,16,19,0.40
2008,12,30,16,20,0.00
2008,12,30,16,21,0.00
2008,12,30,16,22,0.00
2008,12,30,16,23,0.10
2008,12,30,16,24,2.00
2008,12,30,16,25,0.10
2008,12,30,16,26,0.10
2008,12,30,16,27,0.60
2008,12,30,16,28,0.40
2008,12,30,16,29,0.00
2008,12,30,16,30,0.00
2008,12,30,16,31,0.00
2008,12,30,16,32,0.00
2008,12,30,16,33,0.20
2008,12,30,16,34,0.30
2008,12,30,16,35,0.00
2008,12,30,16,36,0.00
2008,12,30,16,37,0.00
2008,12,30,16,38,0.00
2008,12,30,16,39,0.20
2008,12,30,16,40,0.80
2008,12,30,16,41,0.10
2008,12,30,16,42,0.10
2008,12,30,16,43,0.10
2008,12,30,16,44,0.00
2008,12,30,16,45,0.00
2008,12,30,16,46,0.60
2008,12,30,16,47,0.20
2008,12,30,16,48,2.30
2008,12,30,16,49,0.50
2008,12,30,16,50,0.00
2008,12,30,16,51,0.00
2008,12,30,16,52,0.20
2008,12,30,16,53,0.70
2008,12,30,16,54,0.40
2008,12,30,16,55,0.00
2008,12,30,16,56,1.00
2008,12,30,16,57,1.30
2008,12,30,16,58,0.60
2008,12,30,16,59,0.10
2008,12,30,17,00,0.00
2008,12,30,17,01,0.10
2008,12,30,17,02,0.00
2008,12,30,17,03,0.00
2008,12,30,17,04,0.20
2008,12,30,17,05,0.20
2008,12,30,17,06,0.40
2008,12,30,17,07,2.50
2008,12,30,17,08,3.90
2008,12,30,17,09,0.40
2008,12,30,17,10,0.70
2008,12,30,17,11,0.00
2008,12,30,17,12,0.00
2008,12,30,17,13,0.00
2008,12,30,17,14,0.00
2008,12,30,17,15,0.00
2008,12,30,17,16,1.10
2008,12,30,17,17,1.00
2008,12,30,17,18,0.00
2008,12,30,17,19,0.00
2008,12,30,17,20,0.80
2008,12,30,17,21,2.50
2008,12,30,17,22,1.10
2008,12,30,17,23,3.10
2008,12,30,17,24,0.20
2008,12,30,17,25,3.70
2008,12,30,17,26,3.50
2008,12,30,17,27,0.10
2008,12,30,17,28,2.30
2008,12,30,17,29,1.10
2008,12,30,17,30,0.70
2008,12,30,17,31,7.10
2008,12,30,17,32,5.40
2008,12,30,17,33,1.90
2008,12,30,17,34,3.10
2008,12,30,17,35,2.00
2008,12,30,17,36,6.40
2008,12,30,17,37,3.70
2008,12,30,17,38,5.00
2008,12,30,17,39,0.20
2008,12,30,17,40,3.40
2008,12,30,17,41,2.10
2008,12,30,17,42,4.50
2008,12,30,17,43,2.00
2008,12,30,17,44,0.70
2008,12,30,17,45,0.00
2008,12,30,17,46,2.00
2008,12,30,17,47,1.70
2008,12,30,17,48,8.00
2008,12,30,17,49,2.20
2008,12,30,17,50,2.30
2008,12,30,17,51,0.70
2008,12,30,17,52,1.70
2008,12,30,17,53,3.50
2008,12,30,17,54,3.60
2008,12,30,17,55,2.40
2008,12,30,17,56,4.80
2008,12,30,17,57,9.70
2008,12,30,17,58,5.10
2008,12,30,17,59,5.30
2008,12,30,18,00,5.20
2008,12,30,18,01,5.80
2008,12,30,18,02,3.10
2008,12,30,18,03,3.20
2008,12,30,18,04,2.70
2008,12,30,18,05,8.90
2008,12,30,18,06,3.90
2008,12,30,18,07,4.10
2008,12,30,18,08,7.00
2008,12,30,18,09,7.30
2008,12,30,18,10,13.90
2008,12,30,18,11,13.20
2008,12,30,18,12,12.40
2008,12,30,18,13,3.00
2008,12,30,18,14,5.00
2008,12,30,18,15,9.10
2008,12,30,18,16,9.40
2008,12,30,18,17,10.20
2008,12,30,18,18,12.20
2008,12,30,18,19,15.60
2008,12,30,18,20,15.40
2008,12,30,18,21,17.50
2008,12,30,18,22,14.00
2008,12,30,18,23,18.30
2008,12,30,18,24,16.50
2008,12,30,18,25,10.50
2008,12,30,18,26,13.50
2008,12,30,18,27,9.30
2008,12,30,18,28,10.20
2008,12,30,18,29,10.50
2008,12,30,18,30,14.10
2008,12,30,18,31,10.70
2008,12,30,18,32,3.60
2008,12,30,18,33,4.50
2008,12,30,18,34,10.60
2008,12,30,18,35,10.20
2008,12,30,18,36,8.20
2008,12,30,18,37,8.80